Burlington, NC

7:25 PM EDT on May 23, 2018 (GMT -0400)
Burlington-Alamance Regional

Weather History for KBUY - November, 2013

Change the Weather History Date:

Monday, November 4, 2013

  Actual Average Record
Temperature  
Mean Temperature 46 °F -  
Max Temperature 57 °F 66 °F 85 °F (1974)
Min Temperature 35 °F 42 °F 26 °F (1999)
Degree Days  
Heating Degree Days 19    
Moisture  
Dew Point 29 °F    
Average Humidity 58    
Maximum Humidity 82    
Minimum Humidity 33    
Precipitation  
Precipitation 0.00 in - - ()
Sea Level Pressure  
Sea Level Pressure 30.50 in    
Wind  
Wind Speed 5 mph (NE)    
Max Wind Speed 10 mph    
Max Gust Speed -    
Visibility 10 miles    
Events      
Averages and records for this station are not official NWS values.
T = Trace of Precipitation, MM = Missing Value Source: NWS Daily Summary

Daily Weather History Graph

Daily Weather History Graph

Search for Another Location

Airport or City:

Astronomy

Nov. 04, 2013 Rise Set
Actual Time 6:43 AM EST 5:18 PM EST
Civil Twilight 6:16 AM EST 5:45 PM EST
Nautical Twilight 5:46 AM EST 6:15 PM EST
Astronomical Twilight 5:16 AM EST 6:45 PM EST
Moon 7:50 AM EST (11/4) 6:24 PM EST (11/4)
Length of Visible Light 11h 28m
Length of Day
10h 35m
New Moon, 2% of the Moon is Illuminated
Nov 4
New Moon
Nov 10
First Quarter
Nov 17
Full
Nov 25
Last Quarter
Dec 2
New

Hourly Weather History & Observations

Time (EST) Temp. Windchill Dew Point Humidity Pressure Visibility Wind Dir Wind Speed Gust Speed Precip Events Conditions
12:54 AM 39.9 °F 37.8 °F 33.1 °F 77% 30.38 in 10.0 mi NNE 3.5 mph - N/A   Clear
1:54 AM 39.0 °F - 33.1 °F 79% 30.42 in 10.0 mi Calm Calm - N/A   Clear
2:54 AM 35.1 °F - 30.0 °F 82% 30.43 in 10.0 mi Calm Calm - N/A   Clear
3:54 AM 37.0 °F - 30.9 °F 79% 30.45 in 10.0 mi Calm Calm - N/A   Clear
4:54 AM 37.0 °F 31.6 °F 28.9 °F 73% 30.45 in 10.0 mi NE 6.9 mph - N/A   Clear
5:54 AM 37.0 °F 34.5 °F 28.0 °F 70% 30.46 in 10.0 mi NE 3.5 mph - N/A   Clear
6:54 AM 36.0 °F 32.1 °F 27.0 °F 70% 30.49 in 10.0 mi NE 4.6 mph - N/A   Clear
7:54 AM 39.9 °F 33.9 °F 28.9 °F 65% 30.52 in 10.0 mi NNE 9.2 mph - N/A   Clear
8:54 AM 44.1 °F 38.6 °F 30.9 °F 60% 30.55 in 10.0 mi NNE 10.4 mph - N/A   Clear
9:54 AM 46.9 °F - 30.9 °F 54% 30.56 in 10.0 mi NE 8.1 mph - N/A   Clear
10:54 AM 48.9 °F - 30.9 °F 50% 30.56 in 10.0 mi NE 6.9 mph - N/A   Clear
11:54 AM 52.0 °F - 30.0 °F 43% 30.54 in 10.0 mi NNE 9.2 mph - N/A   Clear
12:54 PM 52.0 °F - 28.0 °F 40% 30.52 in 10.0 mi North 10.4 mph - N/A   Clear
1:54 PM 57.0 °F - 28.0 °F 33% 30.50 in 10.0 mi NNE 9.2 mph - N/A   Clear
2:54 PM 54.0 °F - 26.1 °F 34% 30.50 in 10.0 mi NE 9.2 mph - N/A   Clear
3:54 PM 54.0 °F - 27.0 °F 35% 30.50 in 10.0 mi NNE 6.9 mph - N/A   Clear
4:54 PM 52.0 °F - 26.1 °F 37% 30.50 in 10.0 mi NE 4.6 mph - N/A   Clear
5:54 PM 46.0 °F 43.9 °F 28.9 °F 51% 30.51 in 10.0 mi NNE 4.6 mph - N/A   Clear
6:54 PM 45.0 °F 41.8 °F 28.0 °F 52% 30.52 in 10.0 mi NE 5.8 mph - N/A   Clear
7:54 PM 45.0 °F 41.2 °F 28.0 °F 52% 30.53 in 10.0 mi NE 6.9 mph - N/A   Clear
8:54 PM 42.1 °F 38.4 °F 28.0 °F 58% 30.55 in 10.0 mi NE 5.8 mph - N/A   Clear
9:54 PM 39.9 °F 35.8 °F 28.0 °F 63% 30.56 in 10.0 mi NNE 5.8 mph - N/A   Clear
10:54 PM 39.9 °F 35.8 °F 28.0 °F 63% 30.53 in 10.0 mi NE 5.8 mph - N/A   Clear
11:54 PM 39.0 °F - 28.0 °F 65% 30.53 in 10.0 mi Calm Calm - N/A   Clear